When you browse on this site, cookies collect data to enhance your experience and personalize the content and advertising you see.
Visit our Privacy Policy to learn more. By continuing to use the site, you agree to this use of cookies and data.
  • In Hungary
  • List of Countries
  • For 7 days
  • Water Temperature
  • Weather Map
  • News
  • Weather Widgets
  • user-avatar
    Login

    Hourly Weather Monterey

    Today, 15 November, Friday

    Time Temperature Precipitation Wind Pressure Humidity
    00:00 +13°C° 0 mm 1 mps 759 mmHg 95%
    01:00 +14°C° 0 mm 1 mps 759 mmHg 94%
    02:00 +13°C° 0 mm 1 mps 759 mmHg 94%
    03:00 +13°C° 0 mm 1 mps 759 mmHg 94%
    04:00 +13°C° 0 mm 1 mps 759 mmHg 94%
    05:00 +12°C° 0 mm 1 mps 760 mmHg 94%
    06:00 +12°C° 0 mm 1 mps 760 mmHg 94%
    07:00 +10°C° 0 mm 2 mps 760 mmHg 94%
    08:00 +14°C° 0 mm 2 mps 760 mmHg 82%
    09:00 +17°C° 0 mm 2 mps 760 mmHg 69%
    10:00 +19°C° 0 mm 2 mps 760 mmHg 57%
    11:00 +20°C° 0 mm 2 mps 760 mmHg 54%
    12:00 +21°C° 0 mm 2 mps 759 mmHg 50%
    13:00 +21°C° 0 mm 3 mps 759 mmHg 47%
    14:00 +20°C° 0 mm 3 mps 759 mmHg 55%
    15:00 +19°C° 0 mm 3 mps 758 mmHg 62%
    16:00 +18°C° 0 mm 4 mps 758 mmHg 69%
    17:00 +16°C° 0 mm 3 mps 758 mmHg 77%
    18:00 +13°C° 0 mm 3 mps 758 mmHg 84%
    19:00 +12°C° 0 mm 3 mps 758 mmHg 91%
    20:00 +12°C° 0 mm 3 mps 758 mmHg 89%
    21:00 +12°C° 0 mm 3 mps 758 mmHg 87%
    22:00 +12°C° 0 mm 2 mps 758 mmHg 85%
    23:00 +12°C° 0 mm 3 mps 758 mmHg 84%

    Tomorrow, 16 November, Saturday

    Time Temperature Precipitation Wind Pressure Humidity
    00:00 +12°C° 0 mm 3 mps 758 mmHg 83%
    01:00 +12°C° 0 mm 3 mps 758 mmHg 81%
    02:00 +11°C° 0 mm 3 mps 757 mmHg 80%
    03:00 +11°C° 0 mm 3 mps 757 mmHg 79%
    04:00 +11°C° 0 mm 3 mps 757 mmHg 77%
    05:00 +11°C° 0 mm 3 mps 757 mmHg 74%
    06:00 +12°C° 0 mm 3 mps 758 mmHg 71%
    07:00 +12°C° 0 mm 3 mps 758 mmHg 68%
    08:00 +16°C° 0 mm 3 mps 758 mmHg 58%
    09:00 +20°C° 0 mm 3 mps 758 mmHg 48%
    10:00 +24°C° 0 mm 3 mps 758 mmHg 39%
    11:00 +25°C° 0 mm 3 mps 758 mmHg 37%
    12:00 +26°C° 0 mm 4 mps 757 mmHg 35%
    13:00 +27°C° 0 mm 4 mps 757 mmHg 33%
    14:00 +26°C° 0 mm 4 mps 757 mmHg 38%
    15:00 +24°C° 0 mm 3 mps 756 mmHg 43%
    16:00 +22°C° 0 mm 3 mps 756 mmHg 48%
    17:00 +20°C° 0 mm 3 mps 756 mmHg 52%
    18:00 +19°C° 0 mm 3 mps 756 mmHg 55%
    19:00 +17°C° 0 mm 2 mps 757 mmHg 58%
    20:00 +17°C° 0 mm 2 mps 757 mmHg 56%
    21:00 +16°C° 0 mm 2 mps 757 mmHg 55%
    22:00 +16°C° 0 mm 2 mps 757 mmHg 53%
    23:00 +16°C° 0 mm 3 mps 757 mmHg 52%

    Day after tomorrow, 17 November, Sunday

    Time Temperature Precipitation Wind Pressure Humidity
    00:00 +16°C° 0 mm 3 mps 757 mmHg 51%
    01:00 +16°C° 0 mm 3 mps 757 mmHg 51%
    02:00 +16°C° 0 mm 3 mps 757 mmHg 48%
    03:00 +16°C° 0 mm 3 mps 756 mmHg 45%
    04:00 +16°C° 0 mm 3 mps 756 mmHg 42%
    05:00 +16°C° 0 mm 3 mps 756 mmHg 42%
    06:00 +16°C° 0 mm 3 mps 757 mmHg 42%
    07:00 +16°C° 0 mm 3 mps 757 mmHg 42%
    08:00 +19°C° 0 mm 3 mps 757 mmHg 37%
    09:00 +22°C° 0 mm 3 mps 757 mmHg 32%
    10:00 +26°C° 0 mm 3 mps 757 mmHg 27%
    11:00 +28°C° 0 mm 3 mps 757 mmHg 25%
    12:00 +29°C° 0 mm 3 mps 756 mmHg 23%
    13:00 +30°C° 0 mm 3 mps 755 mmHg 21%
    14:00 +28°C° 0 mm 3 mps 755 mmHg 26%
    15:00 +26°C° 0 mm 3 mps 755 mmHg 32%
    16:00 +24°C° 0 mm 3 mps 754 mmHg 37%
    17:00 +22°C° 0 mm 3 mps 754 mmHg 39%
    18:00 +20°C° 0 mm 3 mps 754 mmHg 41%
    19:00 +18°C° 0 mm 2 mps 754 mmHg 42%
    20:00 +18°C° 0 mm 3 mps 754 mmHg 41%
    21:00 +18°C° 0 mm 3 mps 754 mmHg 39%
    22:00 +18°C° 0 mm 3 mps 754 mmHg 37%
    23:00 +18°C° 0 mm 3 mps 754 mmHg 36%

    18 November, Monday

    Time Temperature Precipitation Wind Pressure Humidity
    00:00 +18°C° 0 mm 3 mps 754 mmHg 36%
    01:00 +18°C° 0 mm 3 mps 754 mmHg 36%
    02:00 +17°C° 0 mm 3 mps 754 mmHg 36%
    03:00 +17°C° 0 mm 3 mps 754 mmHg 36%
    04:00 +17°C° 0 mm 3 mps 754 mmHg 35%
    05:00 +17°C° 0 mm 3 mps 754 mmHg 35%
    06:00 +17°C° 0 mm 3 mps 754 mmHg 35%
    07:00 +17°C° 0 mm 3 mps 754 mmHg 35%
    08:00 +20°C° 0 mm 3 mps 754 mmHg 31%
    09:00 +24°C° 0 mm 3 mps 754 mmHg 27%
    10:00 +28°C° 0 mm 2 mps 754 mmHg 23%
    11:00 +28°C° 0 mm 3 mps 754 mmHg 22%
    12:00 +29°C° 0 mm 3 mps 753 mmHg 22%
    13:00 +29°C° 0 mm 4 mps 753 mmHg 21%
    14:00 +27°C° 0 mm 4 mps 752 mmHg 28%
    15:00 +25°C° 0 mm 4 mps 752 mmHg 34%
    16:00 +22°C° 0 mm 4 mps 752 mmHg 41%
    17:00 +20°C° 0 mm 4 mps 752 mmHg 45%
    18:00 +18°C° 0 mm 3 mps 752 mmHg 49%
    19:00 +16°C° 0 mm 3 mps 752 mmHg 53%
    20:00 +16°C° 0 mm 3 mps 752 mmHg 56%
    21:00 +14°C° 0 mm 3 mps 752 mmHg 59%
    22:00 +14°C° 0 mm 3 mps 752 mmHg 61%
    23:00 +13°C° 0 mm 3 mps 752 mmHg 68%

    19 November, Tuesday

    Time Temperature Precipitation Wind Pressure Humidity
    00:00 +13°C° 0 mm 3 mps 752 mmHg 75%
    01:00 +13°C° 0 mm 3 mps 752 mmHg 82%
    02:00 +13°C° 0 mm 3 mps 752 mmHg 85%
    03:00 +13°C° 0 mm 3 mps 751 mmHg 89%
    04:00 +12°C° 0 mm 3 mps 751 mmHg 92%
    05:00 +13°C° 0 mm 4 mps 751 mmHg 93%
    06:00 +13°C° 0 mm 4 mps 751 mmHg 95%
    07:00 +13°C° 0 mm 5 mps 751 mmHg 96%
    08:00 +14°C° 0 mm 5 mps 751 mmHg 88%
    09:00 +14°C° 0 mm 5 mps 751 mmHg 81%
    10:00 +15°C° 0 mm 5 mps 751 mmHg 73%
    11:00 +15°C° 0 mm 5 mps 750 mmHg 72%
    12:00 +15°C° 0 mm 6 mps 749 mmHg 70%
    13:00 +15°C° 0 mm 6 mps 748 mmHg 69%
    14:00 +14°C° 0.1 mm 7 mps 748 mmHg 73%
    15:00 +12°C° 0.1 mm 7 mps 747 mmHg 76%
    16:00 +12°C° 0.1 mm 8 mps 747 mmHg 80%
    17:00 +11°C° 0 mm 7 mps 747 mmHg 84%
    18:00 +10°C° 0 mm 6 mps 746 mmHg 87%
    19:00 +10°C° 0 mm 5 mps 746 mmHg 91%
    20:00 +10°C° 0 mm 5 mps 746 mmHg 92%
    21:00 +10°C° 0 mm 5 mps 746 mmHg 92%
    22:00 +10°C° 0 mm 6 mps 746 mmHg 93%
    23:00 +9°C° 0 mm 6 mps 745 mmHg 92%

    20 November, Wednesday

    Time Temperature Precipitation Wind Pressure Humidity
    00:00 +9°C° 0 mm 6 mps 745 mmHg 91%
    01:00 +9°C° 0 mm 5 mps 744 mmHg 90%
    02:00 +8°C° 0 mm 5 mps 744 mmHg 91%
    03:00 +7°C° 0 mm 4 mps 744 mmHg 92%
    04:00 +7°C° 0 mm 3 mps 743 mmHg 94%
    05:00 +7°C° 0 mm 3 mps 743 mmHg 94%
    06:00 +7°C° 0 mm 3 mps 743 mmHg 93%
    07:00 +7°C° 0 mm 3 mps 743 mmHg 93%
    08:00 +9°C° 0 mm 3 mps 744 mmHg 79%
    09:00 +11°C° 0 mm 3 mps 744 mmHg 64%
    10:00 +14°C° 0 mm 3 mps 745 mmHg 50%
    11:00 +14°C° 0 mm 3 mps 745 mmHg 46%
    12:00 +16°C° 0 mm 3 mps 744 mmHg 42%
    13:00 +17°C° 0 mm 3 mps 744 mmHg 38%
    14:00 +16°C° 0 mm 3 mps 744 mmHg 40%
    15:00 +14°C° 0 mm 4 mps 744 mmHg 42%
    16:00 +14°C° 0 mm 4 mps 744 mmHg 45%
    17:00 +12°C° 0 mm 3 mps 744 mmHg 53%
    18:00 +10°C° 0 mm 3 mps 745 mmHg 62%
    19:00 +8°C° 0 mm 2 mps 745 mmHg 70%
    20:00 +9°C° 0 mm 2 mps 745 mmHg 67%
    21:00 +9°C° 0 mm 2 mps 746 mmHg 63%
    22:00 +9°C° 0 mm 2 mps 746 mmHg 60%
    23:00 +9°C° 0 mm 2 mps 747 mmHg 59%
    Show more